Time,TemperatureF,DewpointF,PressureIn,WindDirection,WindDirectionDegrees,WindSpeedMPH,WindSpeedGustMPH,Humidity,HourlyPrecipIn,Conditions,Clouds,dailyrainin,SoftwareType,DateUTC
2013-09-24 00:04:00,41.0,24.8,30.17,South,180,0.0,1.0,52,0.00,,,0.00,meteohub,2013-09-24 07:04:00,
2013-09-24 00:09:00,41.0,24.8,30.17,South,180,0.0,1.0,52,0.00,,,0.00,meteohub,2013-09-24 07:09:00,
2013-09-24 00:14:00,40.8,24.1,30.17,South,180,0.0,1.0,51,0.00,,,0.00,meteohub,2013-09-24 07:14:00,
2013-09-24 00:19:00,40.6,23.5,30.17,South,180,0.0,1.0,50,0.00,,,0.00,meteohub,2013-09-24 07:19:00,
2013-09-24 00:24:00,40.8,23.5,30.17,South,180,0.0,1.0,50,0.00,,,0.00,meteohub,2013-09-24 07:24:00,
2013-09-24 00:29:00,40.8,23.2,30.17,South,180,0.0,1.0,49,0.00,,,0.00,meteohub,2013-09-24 07:29:00,
2013-09-24 00:34:00,40.8,23.2,30.17,South,180,2.0,2.0,49,0.00,,,0.00,meteohub,2013-09-24 07:34:00,
2013-09-24 00:39:00,40.6,23.0,30.16,South,180,0.0,1.0,49,0.00,,,0.00,meteohub,2013-09-24 07:39:00,
2013-09-24 00:44:00,40.6,23.0,30.16,South,180,2.0,2.0,49,0.00,,,0.00,meteohub,2013-09-24 07:44:00,
2013-09-24 00:49:00,40.6,22.5,30.16,South,180,1.0,2.0,48,0.00,,,0.00,meteohub,2013-09-24 07:49:00,
2013-09-24 00:54:00,40.5,22.8,30.15,South,180,0.0,2.0,49,0.00,,,0.00,meteohub,2013-09-24 07:54:00,
2013-09-24 00:59:00,40.3,23.2,30.16,South,180,1.0,2.0,50,0.00,,,0.00,meteohub,2013-09-24 07:59:00,
2013-09-24 01:04:00,40.1,23.0,30.16,South,180,0.0,2.0,50,0.00,,,0.00,meteohub,2013-09-24 08:04:00,
2013-09-24 01:09:00,39.9,22.3,30.16,South,180,1.0,2.0,49,0.00,,,0.00,meteohub,2013-09-24 08:09:00,
2013-09-24 01:14:00,39.7,21.7,30.16,South,180,0.0,2.0,48,0.00,,,0.00,meteohub,2013-09-24 08:14:00,
2013-09-24 01:20:00,39.6,21.6,30.16,South,180,1.0,1.0,48,0.00,,,0.00,meteohub,2013-09-24 08:20:00,
2013-09-24 01:25:00,39.2,21.6,30.16,South,180,1.0,1.0,49,0.00,,,0.00,meteohub,2013-09-24 08:25:00,
2013-09-24 01:30:00,39.0,21.0,30.16,South,180,1.0,1.0,48,0.00,,,0.00,meteohub,2013-09-24 08:30:00,
2013-09-24 01:35:00,39.0,21.0,30.16,South,180,0.0,1.0,48,0.00,,,0.00,meteohub,2013-09-24 08:35:00,
2013-09-24 01:40:00,38.8,21.4,30.16,South,180,0.0,1.0,49,0.00,,,0.00,meteohub,2013-09-24 08:40:00,
2013-09-24 01:45:00,38.8,20.8,30.17,South,180,0.0,1.0,48,0.00,,,0.00,meteohub,2013-09-24 08:45:00,
2013-09-24 01:50:00,38.7,20.7,30.16,South,180,0.0,1.0,48,0.00,,,0.00,meteohub,2013-09-24 08:50:00,
2013-09-24 01:55:00,38.7,20.7,30.16,South,180,1.0,1.0,48,0.00,,,0.00,meteohub,2013-09-24 08:55:00,
2013-09-24 02:00:00,38.7,20.7,30.16,South,180,0.0,1.0,48,0.00,,,0.00,meteohub,2013-09-24 09:00:00,
2013-09-24 02:05:00,38.7,20.7,30.16,South,180,0.0,1.0,48,0.00,,,0.00,meteohub,2013-09-24 09:05:00,
2013-09-24 02:10:00,38.7,20.7,30.16,South,180,0.0,1.0,48,0.00,,,0.00,meteohub,2013-09-24 09:10:00,
2013-09-24 02:15:00,38.7,20.7,30.16,South,180,0.0,1.0,48,0.00,,,0.00,meteohub,2013-09-24 09:15:00,
2013-09-24 02:20:00,38.7,20.7,30.16,South,180,0.0,1.0,48,0.00,,,0.00,meteohub,2013-09-24 09:20:00,
2013-09-24 02:26:00,38.5,20.5,30.16,South,180,0.0,1.0,48,0.00,,,0.00,meteohub,2013-09-24 09:26:00,
2013-09-24 02:31:00,38.5,20.5,30.16,South,180,0.0,1.0,48,0.00,,,0.00,meteohub,2013-09-24 09:31:00,
2013-09-24 02:36:00,38.5,21.0,30.16,South,180,0.0,1.0,49,0.00,,,0.00,meteohub,2013-09-24 09:36:00,
2013-09-24 02:41:00,38.3,20.3,30.16,South,180,0.0,1.0,48,0.00,,,0.00,meteohub,2013-09-24 09:41:00,
2013-09-24 02:46:00,38.3,20.3,30.16,South,180,0.0,1.0,48,0.00,,,0.00,meteohub,2013-09-24 09:46:00,
2013-09-24 02:51:00,38.3,20.3,30.16,South,180,0.0,1.0,48,0.00,,,0.00,meteohub,2013-09-24 09:51:00,
2013-09-24 02:57:00,38.3,20.3,30.15,South,180,0.0,1.0,48,0.00,,,0.00,meteohub,2013-09-24 09:57:00,
2013-09-24 03:02:00,38.1,20.1,30.15,South,180,0.0,1.0,48,0.00,,,0.00,meteohub,2013-09-24 10:02:00,
2013-09-24 03:07:00,38.3,20.3,30.15,South,180,0.0,1.0,48,0.00,,,0.00,meteohub,2013-09-24 10:07:00,
2013-09-24 03:12:00,38.3,20.8,30.15,South,180,0.0,1.0,49,0.00,,,0.00,meteohub,2013-09-24 10:12:00,
2013-09-24 03:17:00,38.1,20.7,30.15,South,180,0.0,1.0,49,0.00,,,0.00,meteohub,2013-09-24 10:17:00,
2013-09-24 03:22:00,38.1,20.7,30.16,South,180,0.0,1.0,49,0.00,,,0.00,meteohub,2013-09-24 10:22:00,
2013-09-24 03:27:00,37.9,20.5,30.15,South,180,0.0,1.0,49,0.00,,,0.00,meteohub,2013-09-24 10:27:00,
2013-09-24 03:32:00,37.8,20.3,30.16,South,180,0.0,1.0,49,0.00,,,0.00,meteohub,2013-09-24 10:32:00,
2013-09-24 03:37:00,37.6,20.7,30.15,South,180,0.0,1.0,50,0.00,,,0.00,meteohub,2013-09-24 10:37:00,
2013-09-24 13:39:00,74.1,36.0,30.13,SSE,158,5.0,5.0,25,0.00,,,0.00,meteohub,2013-09-24 20:39:00,
2013-09-24 13:44:00,73.6,34.5,30.14,SE,135,6.0,6.0,24,0.00,,,0.00,meteohub,2013-09-24 20:44:00,
2013-09-24 13:49:00,72.9,35.1,30.14,South,180,2.0,5.0,25,0.00,,,0.00,meteohub,2013-09-24 20:49:00,
2013-09-24 13:54:00,72.7,34.9,30.13,East,90,5.0,5.0,25,0.00,,,0.00,meteohub,2013-09-24 20:54:00,
2013-09-24 13:59:00,73.0,35.1,30.13,SE,135,2.0,7.0,25,0.00,,,0.00,meteohub,2013-09-24 20:59:00,
2013-09-24 14:04:00,73.6,35.6,30.13,SSE,158,4.0,7.0,25,0.00,,,0.00,meteohub,2013-09-24 21:04:00,
2013-09-24 14:09:00,74.1,35.1,30.13,South,180,4.0,8.0,24,0.00,,,0.00,meteohub,2013-09-24 21:09:00,
2013-09-24 14:14:00,73.4,34.3,30.13,North,0,3.0,8.0,24,0.00,,,0.00,meteohub,2013-09-24 21:14:00,
2013-09-24 14:19:00,72.9,34.0,30.13,NE,45,2.0,14.0,24,0.00,,,0.00,meteohub,2013-09-24 21:19:00,
2013-09-24 14:24:00,72.3,33.4,30.13,South,180,4.0,14.0,24,0.00,,,0.00,meteohub,2013-09-24 21:24:00,
2013-09-24 14:29:00,72.1,32.4,30.13,South,180,5.0,14.0,23,0.00,,,0.00,meteohub,2013-09-24 21:29:00,
2013-09-24 14:34:00,72.1,32.4,30.13,East,90,2.0,14.0,23,0.00,,,0.00,meteohub,2013-09-24 21:34:00,
2013-09-24 14:39:00,72.1,32.4,30.13,South,180,5.0,8.0,23,0.00,,,0.00,meteohub,2013-09-24 21:39:00,
2013-09-24 14:45:00,72.5,31.5,30.13,SW,225,3.0,8.0,22,0.00,,,0.00,meteohub,2013-09-24 21:45:00,
2013-09-24 14:50:00,72.3,31.3,30.12,SW,225,4.0,8.0,22,0.00,,,0.00,meteohub,2013-09-24 21:50:00,
2013-09-24 14:55:00,71.4,29.5,30.12,South,180,3.0,8.0,21,0.00,,,0.00,meteohub,2013-09-24 21:55:00,
2013-09-24 15:00:00,70.7,30.0,30.12,South,180,4.0,8.0,22,0.00,,,0.00,meteohub,2013-09-24 22:00:00,
2013-09-24 15:05:00,69.8,29.3,30.12,SE,135,4.0,9.0,22,0.00,,,0.00,meteohub,2013-09-24 22:05:00,
2013-09-24 15:10:00,69.1,29.7,30.12,SW,225,2.0,10.0,23,0.00,,,0.00,meteohub,2013-09-24 22:10:00,
2013-09-24 15:15:00,68.9,29.7,30.12,SE,135,2.0,10.0,23,0.00,,,0.00,meteohub,2013-09-24 22:15:00,
2013-09-24 15:20:00,68.7,30.4,30.12,SW,225,3.0,9.0,24,0.00,,,0.00,meteohub,2013-09-24 22:20:00,
2013-09-24 15:25:00,68.5,30.4,30.12,SE,135,2.0,9.0,24,0.00,,,0.00,meteohub,2013-09-24 22:25:00,
2013-09-24 15:30:00,68.5,30.4,30.12,SW,225,4.0,9.0,24,0.00,,,0.00,meteohub,2013-09-24 22:30:00,
2013-09-24 15:36:00,68.2,30.0,30.12,SW,225,2.0,7.0,24,0.00,,,0.00,meteohub,2013-09-24 22:36:00,
2013-09-24 15:41:00,68.0,29.8,30.12,SSW,203,5.0,8.0,24,0.00,,,0.00,meteohub,2013-09-24 22:41:00,
2013-09-24 15:46:00,67.6,29.5,30.12,SSE,158,2.0,8.0,24,0.00,,,0.00,meteohub,2013-09-24 22:46:00,
2013-09-24 15:51:00,67.3,29.3,30.11,South,180,7.0,8.0,24,0.00,,,0.00,meteohub,2013-09-24 22:51:00,
2013-09-24 15:56:00,66.9,28.9,30.12,South,180,4.0,8.0,24,0.00,,,0.00,meteohub,2013-09-24 22:56:00,
2013-09-24 16:01:00,66.6,28.6,30.12,SW,225,3.0,8.0,24,0.00,,,0.00,meteohub,2013-09-24 23:01:00,
2013-09-24 16:06:00,66.4,28.4,30.11,SE,135,3.0,8.0,24,0.00,,,0.00,meteohub,2013-09-24 23:06:00,
2013-09-24 16:11:00,66.2,29.3,30.11,South,180,5.0,8.0,25,0.00,,,0.00,meteohub,2013-09-24 23:11:00,
2013-09-24 16:16:00,65.8,30.0,30.12,South,180,3.0,6.0,26,0.00,,,0.00,meteohub,2013-09-24 23:16:00,
2013-09-24 16:21:00,65.7,29.8,30.11,WSW,248,2.0,6.0,26,0.00,,,0.00,meteohub,2013-09-24 23:21:00,
2013-09-24 16:26:00,65.5,29.7,30.11,NE,45,4.0,6.0,26,0.00,,,0.00,meteohub,2013-09-24 23:26:00,
2013-09-24 16:31:00,65.3,29.5,30.11,SW,225,2.0,8.0,26,0.00,,,0.00,meteohub,2013-09-24 23:31:00,
2013-09-24 16:36:00,65.1,30.4,30.11,SW,225,2.0,8.0,27,0.00,,,0.00,meteohub,2013-09-24 23:36:00,
2013-09-24 16:41:00,64.8,30.0,30.11,West,270,1.0,8.0,27,0.00,,,0.00,meteohub,2013-09-24 23:41:00,
2013-09-24 16:46:00,64.6,29.8,30.11,SW,225,2.0,8.0,27,0.00,,,0.00,meteohub,2013-09-24 23:46:00,
2013-09-24 16:51:00,64.2,29.5,30.11,SW,225,2.0,3.0,27,0.00,,,0.00,meteohub,2013-09-24 23:51:00,
2013-09-24 16:56:00,63.9,30.2,30.11,South,180,2.0,3.0,28,0.00,,,0.00,meteohub,2013-09-24 23:56:00,
2013-09-24 17:01:00,63.5,30.7,30.11,ENE,68,3.0,3.0,29,0.00,,,0.00,meteohub,2013-09-25 00:01:00,
2013-09-24 17:06:00,63.3,31.3,30.11,South,180,4.0,4.0,30,0.00,,,0.00,meteohub,2013-09-25 00:06:00,
2013-09-24 17:11:00,62.8,30.0,30.11,South,180,2.0,4.0,29,0.00,,,0.00,meteohub,2013-09-25 00:11:00,
2013-09-24 17:16:00,62.2,31.3,30.11,NE,45,1.0,4.0,31,0.00,,,0.00,meteohub,2013-09-25 00:16:00,
2013-09-24 17:21:00,61.7,31.5,30.11,NE,45,4.0,4.0,32,0.00,,,0.00,meteohub,2013-09-25 00:21:00,
2013-09-24 17:26:00,61.3,32.0,30.11,SSW,203,4.0,4.0,33,0.00,,,0.00,meteohub,2013-09-25 00:26:00,
2013-09-24 17:31:00,61.2,31.8,30.11,West,270,4.0,6.0,33,0.00,,,0.00,meteohub,2013-09-25 00:31:00,
2013-09-24 17:36:00,61.0,32.4,30.11,West,270,2.0,6.0,34,0.00,,,0.00,meteohub,2013-09-25 00:36:00,
2013-09-24 17:42:00,60.8,32.2,30.11,East,90,1.0,6.0,34,0.00,,,0.00,meteohub,2013-09-25 00:42:00,
2013-09-24 17:47:00,60.6,32.2,30.11,East,90,0.0,6.0,34,0.00,,,0.00,meteohub,2013-09-25 00:47:00,
2013-09-24 17:52:00,60.3,32.5,30.11,West,270,2.0,6.0,35,0.00,,,0.00,meteohub,2013-09-25 00:52:00,
2013-09-24 17:56:00,60.1,32.4,30.10,West,270,1.0,6.0,35,0.00,,,0.00,meteohub,2013-09-25 00:56:00,
2013-09-24 18:02:00,59.5,31.8,30.10,West,270,2.0,3.0,35,0.00,,,0.00,meteohub,2013-09-25 01:02:00,
2013-09-24 18:07:00,59.4,32.4,30.10,East,90,2.0,3.0,36,0.00,,,0.00,meteohub,2013-09-25 01:07:00,
2013-09-24 18:12:00,59.2,32.2,30.10,South,180,0.0,3.0,36,0.00,,,0.00,meteohub,2013-09-25 01:12:00,
2013-09-24 18:17:00,59.0,32.7,30.10,South,180,2.0,5.0,37,0.00,,,0.00,meteohub,2013-09-25 01:17:00,
2013-09-24 18:22:00,58.6,33.1,30.10,NE,45,3.0,5.0,38,0.00,,,0.00,meteohub,2013-09-25 01:22:00,
2013-09-24 18:27:00,58.3,33.4,30.10,NE,45,2.0,5.0,39,0.00,,,0.00,meteohub,2013-09-25 01:27:00,
2013-09-24 18:32:00,57.7,32.9,30.10,NE,45,4.0,5.0,39,0.00,,,0.00,meteohub,2013-09-25 01:32:00,
2013-09-24 18:37:00,57.4,32.5,30.10,NE,45,2.0,5.0,39,0.00,,,0.00,meteohub,2013-09-25 01:37:00,
2013-09-24 18:42:00,57.0,32.4,30.10,NE,45,2.0,4.0,39,0.00,,,0.00,meteohub,2013-09-25 01:42:00,
2013-09-24 18:47:00,56.7,31.3,30.10,NE,45,3.0,4.0,38,0.00,,,0.00,meteohub,2013-09-25 01:47:00,
2013-09-24 18:52:00,56.3,31.6,30.09,North,0,2.0,3.0,39,0.00,,,0.00,meteohub,2013-09-25 01:52:00,
2013-09-24 18:57:00,56.1,31.5,30.09,North,0,2.0,3.0,39,0.00,,,0.00,meteohub,2013-09-25 01:57:00,
2013-09-24 19:02:00,55.8,31.1,30.09,North,0,4.0,4.0,39,0.00,,,0.00,meteohub,2013-09-25 02:02:00,
2013-09-24 19:07:00,55.6,31.1,30.09,SW,225,1.0,6.0,39,0.00,,,0.00,meteohub,2013-09-25 02:07:00,
2013-09-24 19:12:00,55.4,30.9,30.09,SW,225,2.0,6.0,39,0.00,,,0.00,meteohub,2013-09-25 02:12:00,
2013-09-24 19:17:00,55.0,30.6,30.09,SW,225,1.0,4.0,39,0.00,,,0.00,meteohub,2013-09-25 02:17:00,
2013-09-24 19:22:00,54.5,30.0,30.10,SW,225,0.0,4.0,39,0.00,,,0.00,meteohub,2013-09-25 02:22:00,
2013-09-24 19:27:00,54.1,29.7,30.10,SW,225,0.0,4.0,39,0.00,,,0.00,meteohub,2013-09-25 02:27:00,
2013-09-24 19:32:00,53.8,29.5,30.10,SW,225,1.0,2.0,39,0.00,,,0.00,meteohub,2013-09-25 02:32:00,
2013-09-24 19:37:00,53.2,29.5,30.10,SW,225,1.0,2.0,40,0.00,,,0.00,meteohub,2013-09-25 02:37:00,
2013-09-24 19:42:00,52.9,29.8,30.09,SW,225,2.0,2.0,41,0.00,,,0.00,meteohub,2013-09-25 02:42:00,
2013-09-24 19:47:00,52.5,30.7,30.10,SW,225,0.0,2.0,43,0.00,,,0.00,meteohub,2013-09-25 02:47:00,
2013-09-24 19:52:00,52.2,30.4,30.10,SW,225,0.0,2.0,43,0.00,,,0.00,meteohub,2013-09-25 02:52:00,
2013-09-24 19:57:00,52.0,30.7,30.09,SW,225,1.0,2.0,44,0.00,,,0.00,meteohub,2013-09-25 02:57:00,
2013-09-24 20:02:00,51.8,30.6,30.10,SW,225,1.0,2.0,44,0.00,,,0.00,meteohub,2013-09-25 03:02:00,
2013-09-24 20:07:00,51.6,30.9,30.10,SW,225,1.0,1.0,45,0.00,,,0.00,meteohub,2013-09-25 03:07:00,
2013-09-24 20:12:00,51.4,30.7,30.10,SW,225,2.0,2.0,45,0.00,,,0.00,meteohub,2013-09-25 03:12:00,
2013-09-24 20:17:00,51.3,30.6,30.10,SW,225,1.0,2.0,45,0.00,,,0.00,meteohub,2013-09-25 03:17:00,
2013-09-24 20:22:00,51.1,31.1,30.10,SW,225,1.0,2.0,46,0.00,,,0.00,meteohub,2013-09-25 03:22:00,
2013-09-24 20:27:00,50.9,30.9,30.11,SW,225,1.0,2.0,46,0.00,,,0.00,meteohub,2013-09-25 03:27:00,
2013-09-24 20:32:00,50.5,30.6,30.10,SW,225,2.0,3.0,46,0.00,,,0.00,meteohub,2013-09-25 03:32:00,
2013-09-24 20:37:00,50.4,30.9,30.10,SW,225,2.0,3.0,47,0.00,,,0.00,meteohub,2013-09-25 03:37:00,
2013-09-24 20:42:00,50.0,31.1,30.10,South,180,2.0,2.0,48,0.00,,,0.00,meteohub,2013-09-25 03:42:00,
2013-09-24 20:47:00,49.6,30.7,30.10,South,180,2.0,2.0,48,0.00,,,0.00,meteohub,2013-09-25 03:47:00,
2013-09-24 20:52:00,48.9,30.0,30.10,South,180,0.0,3.0,48,0.00,,,0.00,meteohub,2013-09-25 03:52:00,
2013-09-24 20:57:00,48.4,30.0,30.10,South,180,0.0,3.0,49,0.00,,,0.00,meteohub,2013-09-25 03:57:00,
2013-09-24 21:01:00,48.2,30.4,30.10,South,180,2.0,3.0,50,0.00,,,0.00,meteohub,2013-09-25 04:01:00,
2013-09-24 21:07:00,48.0,30.2,30.09,South,180,1.0,2.0,50,0.00,,,0.00,meteohub,2013-09-25 04:07:00,
2013-09-24 21:12:00,47.5,29.8,30.10,South,180,0.0,2.0,50,0.00,,,0.00,meteohub,2013-09-25 04:12:00,
2013-09-24 21:17:00,47.5,29.8,30.10,South,180,2.0,2.0,50,0.00,,,0.00,meteohub,2013-09-25 04:17:00,
2013-09-24 21:22:00,47.3,30.0,30.09,South,180,2.0,2.0,51,0.00,,,0.00,meteohub,2013-09-25 04:22:00,
2013-09-24 21:27:00,47.7,29.5,30.10,South,180,0.0,2.0,49,0.00,,,0.00,meteohub,2013-09-25 04:27:00,
2013-09-24 21:32:00,47.8,29.7,30.10,South,180,1.0,2.0,49,0.00,,,0.00,meteohub,2013-09-25 04:32:00,
2013-09-24 21:37:00,48.2,30.0,30.10,South,180,2.0,2.0,49,0.00,,,0.00,meteohub,2013-09-25 04:37:00,
2013-09-24 21:42:00,48.6,29.8,30.10,SE,135,2.0,2.0,48,0.00,,,0.00,meteohub,2013-09-25 04:42:00,
2013-09-24 21:47:00,49.1,30.2,30.10,SE,135,0.0,2.0,48,0.00,,,0.00,meteohub,2013-09-25 04:47:00,
2013-09-24 21:52:00,49.3,30.4,30.10,SE,135,3.0,3.0,48,0.00,,,0.00,meteohub,2013-09-25 04:52:00,
2013-09-24 21:57:00,49.3,29.8,30.10,SE,135,2.0,2.0,47,0.00,,,0.00,meteohub,2013-09-25 04:57:00,
2013-09-24 22:02:00,49.3,29.8,30.10,SE,135,1.0,2.0,47,0.00,,,0.00,meteohub,2013-09-25 05:02:00,
2013-09-24 22:07:00,49.1,29.7,30.09,SE,135,2.0,3.0,47,0.00,,,0.00,meteohub,2013-09-25 05:07:00,
2013-09-24 22:12:00,48.7,29.8,30.09,North,0,2.0,3.0,48,0.00,,,0.00,meteohub,2013-09-25 05:12:00,
2013-09-24 22:17:00,49.3,29.8,30.09,NE,45,2.0,3.0,47,0.00,,,0.00,meteohub,2013-09-25 05:17:00,
2013-09-24 22:22:00,50.0,30.0,30.09,SW,225,2.0,3.0,46,0.00,,,0.00,meteohub,2013-09-25 05:22:00,
2013-09-24 22:27:00,50.0,29.5,30.09,SW,225,1.0,3.0,45,0.00,,,0.00,meteohub,2013-09-25 05:27:00,
2013-09-24 22:32:00,50.0,28.9,30.09,SW,225,0.0,5.0,44,0.00,,,0.00,meteohub,2013-09-25 05:32:00,
2013-09-24 22:37:00,49.8,28.8,30.09,SW,225,1.0,5.0,44,0.00,,,0.00,meteohub,2013-09-25 05:37:00,
2013-09-24 22:42:00,49.6,28.6,30.09,SW,225,2.0,2.0,44,0.00,,,0.00,meteohub,2013-09-25 05:42:00,
2013-09-24 22:47:00,49.1,28.0,30.08,ENE,68,2.0,2.0,44,0.00,,,0.00,meteohub,2013-09-25 05:47:00,
2013-09-24 22:52:00,48.7,27.9,30.09,North,0,2.0,2.0,44,0.00,,,0.00,meteohub,2013-09-25 05:52:00,
2013-09-24 22:57:00,49.3,27.7,30.09,North,0,3.0,3.0,43,0.00,,,0.00,meteohub,2013-09-25 05:57:00,
2013-09-24 23:02:00,49.6,28.0,30.08,East,90,2.0,2.0,43,0.00,,,0.00,meteohub,2013-09-25 06:02:00,
2013-09-24 23:07:00,50.0,27.9,30.08,East,90,2.0,6.0,42,0.00,,,0.00,meteohub,2013-09-25 06:07:00,
2013-09-24 23:12:00,50.2,27.3,30.08,East,90,2.0,6.0,41,0.00,,,0.00,meteohub,2013-09-25 06:12:00,
2013-09-24 23:17:00,50.0,27.1,30.07,East,90,2.0,4.0,41,0.00,,,0.00,meteohub,2013-09-25 06:17:00,
2013-09-24 23:22:00,49.6,27.0,30.07,East,90,1.0,4.0,41,0.00,,,0.00,meteohub,2013-09-25 06:22:00,
2013-09-24 23:27:00,49.5,26.8,30.07,North,0,2.0,4.0,41,0.00,,,0.00,meteohub,2013-09-25 06:27:00,
2013-09-24 23:32:00,49.3,26.6,30.07,North,0,2.0,3.0,41,0.00,,,0.00,meteohub,2013-09-25 06:32:00,
2013-09-24 23:37:00,49.3,27.1,30.07,NE,45,2.0,3.0,42,0.00,,,0.00,meteohub,2013-09-25 06:37:00,
2013-09-24 23:42:00,48.9,26.8,30.06,NE,45,1.0,2.0,42,0.00,,,0.00,meteohub,2013-09-25 06:42:00,
2013-09-24 23:47:00,48.6,26.4,30.06,South,180,2.0,2.0,42,0.00,,,0.00,meteohub,2013-09-25 06:47:00,
2013-09-24 23:52:00,48.7,26.6,30.07,West,270,5.0,5.0,42,0.00,,,0.00,meteohub,2013-09-25 06:52:00,
2013-09-24 23:57:00,49.3,26.6,30.06,ENE,68,2.0,2.0,41,0.00,,,0.00,meteohub,2013-09-25 06:57:00,